Flag for U.S.A. Weather past 2 weeks in Billings, Montana, U.S.A.

Now
27 °F

Snow. Ice fog.


Feels Like: 14 °F
Forecast: 19 / 37 °F
Wind: 17 mph from Northeast

Location: Billings Logan International Airport

Current Time: Jan 31, 2015 at 2:25:46 PM

Latest Report: Jan 31, 2015 at 1:53 PM


Visibility: 0 mi

Pressure: 30.16 "Hg

Humidity: 92%

Dew point: 25 °F

Location of BillingsLocation

Historic Weather in Billings — Graph

°F

Billings temperature yesterday

Maximum temperature yesterday: 50 °F (at 1:53 PM)
Minimum temperature yesterday: 32 °F (at 4:53 AM)
Average temperature yesterday: 38 °F

Past Weeks' High & Low Weather Summary

 TemperatureHumidityPressure
High66 °F (Jan 27, 1:53 PM)88% (Jan 29, 7:53 AM)30.49 "Hg (Jan 29, 7:53 AM)
Low26 °F (Jan 21, 5:53 AM)26% (Jan 27, 12:53 PM)29.76 "Hg (Jan 16, 12:53 PM)
Average40 °F53%30.12 "Hg
* Reported Jan 16 12:53 PM — Jan 31 12:53 PM, Billings, Weather by CustomWeather, © 2014

Note: Actual official high and low records may vary slightly from our data, if they occured in-between our weather recording intervals... More about our weather records

Advertising

Billings weather history for previous 24 hours

 ConditionsComfort  
Time TempWeatherWind HumidityBarometerVisibility
12:53 PM
Jan 31
30 °FLight snow. Overcast.15 mph75%30.14 "Hg8 mi
11:53 AM31 °FMostly cloudy.15 mph76%30.12 "Hg10 mi
10:53 AM31 °FBroken clouds.22 mph76%30.08 "Hg10 mi
9:53 AM33 °FBroken clouds.14 mph58%30.05 "Hg10 mi
8:53 AM31 °FBroken clouds.14 mph64%30.03 "Hg10 mi
7:53 AM30 °FPartly sunny.15 mph64%30.02 "Hg10 mi
6:53 AM29 °FPassing clouds.15 mph69%30.01 "Hg10 mi
5:53 AM28 °FPassing clouds.14 mph75%29.99 "Hg10 mi
4:53 AM32 °FPassing clouds.17 mph73%29.98 "Hg10 mi
3:53 AM33 °FPassing clouds.15 mph70%29.99 "Hg10 mi
2:53 AM30 °FClear.14 mph82%30.01 "Hg10 mi
1:53 AM30 °FClear.14 mph82%30.02 "Hg10 mi
12:53 AM31 °FPassing clouds.10 mph79%30.04 "Hg10 mi
11:53 PM
Jan 30
33 °FPassing clouds.14 mph72%30.06 "Hg10 mi
10:53 PM32 °FPassing clouds.14 mph75%30.10 "Hg10 mi
9:53 PM35 °FClear.13 mph67%30.13 "Hg10 mi
8:53 PM37 °FPassing clouds.13 mph60%30.15 "Hg10 mi
7:53 PM38 °FPassing clouds.6 mph58%30.16 "Hg10 mi
6:53 PM41 °FPassing clouds.3 mph51%30.17 "Hg10 mi
5:53 PM43 °FPassing clouds.5 mph40%30.18 "Hg10 mi
4:53 PM47 °FScattered clouds.5 mph33%30.18 "Hg10 mi
3:53 PM49 °FPassing clouds.3 mph28%30.16 "Hg10 mi
2:53 PM50 °FPassing clouds.3 mph27%30.19 "Hg10 mi
Weather by CustomWeather, © 2014

See weather overviewHow to use our weather pages